Weather History for Afonsos, Brazil

Change the Weather History Date:

Saturday, February 1, 2014

  Actual Average Record
Temperature  
Mean Temperature 84 °F -  
Max Temperature 98 °F 90 °F 98 °F (1997)
Min Temperature 71 °F 76 °F 68 °F (2012)
Cooling Degree Days 20    
Growing Degree Days 34 (Base 50)    
Moisture  
Dew Point 67 °F    
Average Humidity 52    
Maximum Humidity 83    
Minimum Humidity 29    
Precipitation  
Precipitation 0.00 in - - ()
Sea Level Pressure  
Sea Level Pressure 29.92 in    
Wind  
Wind Speed 3 mph ()    
Max Wind Speed 15 mph    
Max Gust Speed -    
Visibility 6.2 miles    
Events      
Averages and records for this station are not official NWS values.
T = Trace of Precipitation, MM = Missing Value Source: Averaged Metar Reports

Daily Weather History Graph

Daily Weather History Graph

Search for Another Location

Airport:

Trip Planner

Search our weather history database for the weather conditions in past years. The results will help you decide how hot, cold, wet, or windy it might be!

Date:

Astronomy

Feb. 01, 2014 Rise Set
Actual Time 6:33 AM BRST 7:40 PM BRST
Civil Twilight 6:09 AM BRST 8:04 PM BRST
Nautical Twilight 5:41 AM BRST 8:32 PM BRST
Astronomical Twilight 5:12 AM BRST 9:01 PM BRST
Moon 8:15 AM BRST (2/1) 8:57 PM BRST (2/1)
Length of Visible Light 13h 54m
Length of Day
13h 07m
Waxing Crescent, 4% of the Moon is Illuminated
Feb 1
Waxing Crescent
Feb 6
First Quarter
Feb 14
Full
Feb 22
Last Quarter
Mar 1
New

Hourly Weather History & Observations

Time (BRST) Temp. Heat Index Dew Point Humidity Pressure Visibility Wind Dir Wind Speed Gust Speed Precip Events Conditions
12:00 AM 84.2 °F 87.3 °F 68.0 °F 58% 29.95 in - Calm Calm - N/A   Clear
1:00 AM 82.4 °F 85.4 °F 68.0 °F 62% 29.95 in - Calm Calm - N/A   Clear
2:00 AM 82.4 °F 85.4 °F 68.0 °F 62% 29.92 in - Calm Calm - N/A   Clear
3:00 AM 82.4 °F 85.4 °F 68.0 °F 62% 29.92 in - Calm Calm - N/A   Clear
4:00 AM 80.6 °F 82.7 °F 66.2 °F 61% 29.92 in - Calm Calm - N/A   Clear
5:00 AM 80.6 °F 82.7 °F 66.2 °F 61% 29.92 in - Calm Calm - N/A   Clear
6:00 AM 75.2 °F - 68.0 °F 78% 30.06 in - Calm Calm - N/A   Clear
7:00 AM 71.6 °F - 66.2 °F 83% 29.95 in - Calm Calm - N/A   Clear
8:00 AM 82.4 °F 84.6 °F 66.2 °F 58% 29.98 in - North 2.3 mph - N/A   Clear
9:00 AM 86.0 °F 90.4 °F 69.8 °F 58% 29.98 in - ENE 3.5 mph - N/A   Clear
10:00 AM 89.6 °F 93.4 °F 68.0 °F 49% 29.98 in - NNE 2.3 mph - N/A   Clear
11:00 AM 93.2 °F 96.2 °F 66.2 °F 41% 29.98 in - West 3.5 mph - N/A   Clear
12:00 PM 95.0 °F 97.0 °F 64.4 °F 36% 29.95 in - NE 8.1 mph - N/A   Clear
1:00 PM 96.8 °F 98.0 °F 62.6 °F 32% 29.92 in - NE 6.9 mph - N/A   Clear
2:00 PM 98.6 °F 99.4 °F 60.8 °F 29% 29.92 in 6.2 mi East 4.6 mph - N/A   Partly Cloudy
3:00 PM 98.6 °F 102.8 °F 66.2 °F 35% 29.89 in 6.2 mi SSE 6.9 mph - N/A   Partly Cloudy
4:00 PM 98.6 °F 101.0 °F 64.4 °F 32% 29.86 in 6.2 mi South 12.7 mph - N/A   Partly Cloudy
5:00 PM 96.8 °F 99.0 °F 64.4 °F 34% 29.86 in 6.2 mi SSW 15.0 mph - N/A   Partly Cloudy
6:00 PM 93.2 °F 96.2 °F 66.2 °F 41% 29.86 in 6.2 mi SSW 13.8 mph - N/A   Partly Cloudy
7:00 PM 91.4 °F 95.4 °F 68.0 °F 46% 29.86 in 6.2 mi SSE 6.9 mph - N/A   Partly Cloudy
8:00 PM 87.8 °F 91.4 °F 68.0 °F 52% 29.86 in 6.2 mi SSE 4.6 mph - N/A   Partly Cloudy
9:00 PM 87.8 °F 91.4 °F 68.0 °F 52% 29.89 in 6.2 mi SSW 2.3 mph - N/A   Partly Cloudy
10:00 PM 84.2 °F 88.4 °F 69.8 °F 62% 29.89 in - East 3.5 mph - N/A   Clear
11:00 PM 86.0 °F 89.4 °F 68.0 °F 55% 29.89 in - ENE 3.5 mph - N/A   Clear